Location: Northam
(31.6525°S, 116.6655°E)
Time: 21:53:58
(UTC+08:00)

N. Korean satellite - Visible Passes

Search period start: 25 September 2022 00:00
Search period end: 05 October 2022 00:00
Orbit: 428 x 468 km, 97.3° (Epoch: 24 September)

Date Brightness Start Highest point End Pass type
(mag) Time Alt. Az. Time Alt. Az. Time Alt. Az.
25 Sep 8.4 04:19:54 10° NE 04:22:50 30° ESE 04:25:52 10° SSE visible
26 Sep 7.2 05:16:55 10° NNW 05:19:53 30° W 05:22:55 10° SW visible
27 Sep 6.7 04:40:58 10° NNE 04:44:15 68° ESE 04:47:39 10° S visible
28 Sep 9.3 04:06:20 10° ENE 04:08:47 19° ESE 04:11:17 10° SSE visible
29 Sep 6.5 05:02:21 10° N 05:05:35 51° W 05:08:56 10° SSW visible
30 Sep 7.9 04:26:48 10° NE 04:29:56 39° ESE 04:33:10 10° S visible
01 Oct 9.9 03:52:58 10° E 03:54:27 12° ESE 03:55:56 10° SE visible
01 Oct 7.5 05:24:04 10° NNW 05:26:50 24° W 05:29:41 10° SW visible
02 Oct 6.4 04:47:39 10° NNE 04:51:00 88° ESE 04:54:27 10° S visible
03 Oct 8.9 04:12:34 10° NE 04:15:19 24° ESE 04:18:09 10° SSE visible
04 Oct 6.8 05:08:48 10° N 05:11:59 41° W 05:15:16 10° SSW visible
